This is the latest recevied weather packets stored in our database for station/object KD5UMO-1. If no packets are shown the sender has not sent any weather packets the latest 10 day(s).
| Time | Temp. | Humidity | Pressure | Rain* | Wind** | Luminosity | Snow |
|---|---|---|---|---|---|---|---|
| 1778108984 | 16.11° C | 75% | 1014.2 hPa | 0 mm | - | 127 W/m² | - |
| 1778108680 | 16.67° C | 75% | 1014.2 hPa | 0 mm | - | 117 W/m² | - |
| 1778108377 | 16.11° C | 75% | 1014.2 hPa | 0 mm | - | 151 W/m² | - |
| 1778108074 | 16.11° C | 75% | 1014.3 hPa | 0 mm | - | 162 W/m² | - |
| 1778107771 | 16.11° C | 76% | 1014.2 hPa | 0 mm | - | 133 W/m² | - |
| 1778107468 | 16.67° C | 75% | 1014.3 hPa | 0 mm | - | 134 W/m² | - |
| 1778107165 | 16.11° C | 75% | 1014.2 hPa | 0 mm | - | 173 W/m² | - |
| 1778106860 | 16.11° C | 76% | 1014 hPa | 0 mm | - | 217 W/m² | - |
| 1778106558 | 16.11° C | 76% | 1014 hPa | 0 mm | - | 171 W/m² | - |
| 1778106254 | 16.11° C | 76% | 1014.1 hPa | 0 mm | - | 153 W/m² | - |
| 1778105951 | 16.11° C | 77% | 1014.3 hPa | 0 mm | - | 149 W/m² | - |
| 1778105648 | 16.11° C | 76% | 1014.4 hPa | 0 mm | - | 82 W/m² | - |
| 1778105346 | 16.11° C | 76% | 1013.8 hPa | 0 mm | - | 118 W/m² | - |
| 1778105041 | 16.11° C | 75% | 1013.7 hPa | 0 mm | - | 162 W/m² | - |
| 1778104738 | 16.11° C | 76% | 1013.8 hPa | 0 mm | - | 159 W/m² | - |
| 1778104434 | 16.11° C | 75% | 1013.6 hPa | 0 mm | - | 191 W/m² | - |
| 1778104130 | 16.11° C | 75% | 1013.9 hPa | 0 mm | - | 207 W/m² | - |
| 1778103827 | 16.11° C | 75% | 1013.6 hPa | 0 mm | - | 257 W/m² | - |
| 1778103525 | 16.11° C | 75% | 1013.9 hPa | 0 mm | - | 250 W/m² | - |
| 1778103222 | 16.67° C | 75% | 1014 hPa | 0 mm | - | 273 W/m² | - |
| 1778102919 | 16.67° C | 75% | 1014 hPa | 0 mm | - | 304 W/m² | - |
| 1778102615 | 16.11° C | 75% | 1014 hPa | 0 mm | - | 298 W/m² | - |
| 1778102310 | 16.11° C | 75% | 1013.8 hPa | 0 mm | - | 341 W/m² | - |
| 1778102006 | 16.11° C | 75% | 1013.9 hPa | 0 mm | - | 272 W/m² | - |
| 1778101704 | 16.11° C | 75% | 1014 hPa | 0 mm | - | 283 W/m² | - |
* Rain latest hour (hover to see other rain measurements)
** Current wind speed in m/s (hover to see current wind gust speed)